Weather History for Opa Locka, FL

Change the Weather History Date:

Wednesday, May 29, 2013

  Actual Average Record
Temperature  
Mean Temperature 76 °F -  
Max Temperature 80 °F 87 °F 93 °F (1974)
Min Temperature 73 °F 71 °F 60 °F (1976)
Cooling Degree Days 12    
Growing Degree Days 26 (Base 50)    
Moisture  
Dew Point 71 °F    
Average Humidity 84    
Maximum Humidity 94    
Minimum Humidity 68    
Precipitation  
Precipitation 0.87 in - - ()
Sea Level Pressure  
Sea Level Pressure 30.06 in    
Wind  
Wind Speed 13 mph (East)    
Max Wind Speed 22 mph    
Max Gust Speed 36 mph    
Visibility 8 miles    
Events Rain    
Averages and records for this station are not official NWS values.
T = Trace of Precipitation, MM = Missing Value Source: NWS Daily Summary

Daily Weather History Graph

Daily Weather History Graph

Search for Another Location

Airport:

Trip Planner

Search our weather history database for the weather conditions in past years. The results will help you decide how hot, cold, wet, or windy it might be!

Date:

Astronomy

May. 29, 2013 Rise Set
Actual Time 6:29 AM EDT 8:07 PM EDT
Civil Twilight 6:04 AM EDT 8:33 PM EDT
Nautical Twilight 5:33 AM EDT 9:03 PM EDT
Astronomical Twilight 5:01 AM EDT 9:35 PM EDT
Moon No Moon Rise 11:12 AM EDT (5/29)
Length of Visible Light 14h 28m
Length of Day
13h 37m
Waning Gibbous, 73% of the Moon is Illuminated
May 29
Waning Gibbous
May 31
Last Quarter
Jun 8
New
Jun 16
First Quarter
Jun 23
Full

Hourly Weather History & Observations

Time (EDT) Temp. Heat Index Dew Point Humidity Pressure Visibility Wind Dir Wind Speed Gust Speed Precip Events Conditions
12:53 AM 78.1 °F - 70.0 °F 76% 30.07 in 10.0 mi East 12.7 mph - N/A   Partly Cloudy
1:46 AM 78.8 °F - 71.6 °F 78% 30.06 in 10.0 mi East 12.7 mph 21.9 mph 0.00 in Rain Light Rain
1:53 AM 73.9 °F - 69.1 °F 85% 30.06 in 10.0 mi East 9.2 mph 21.9 mph 0.01 in Rain Rain
2:16 AM 75.2 °F - 71.6 °F 89% 30.05 in 10.0 mi East 10.4 mph - 0.00 in   Mostly Cloudy
2:53 AM 75.9 °F - 70.0 °F 82% 30.05 in 10.0 mi East 6.9 mph - 0.00 in   Clear
3:53 AM 75.0 °F - 71.1 °F 87% 30.03 in 10.0 mi East 10.4 mph 19.6 mph 0.00 in   Scattered Clouds
4:22 AM 75.2 °F - 71.6 °F 89% 30.03 in 10.0 mi East 15.0 mph - N/A   Mostly Cloudy
4:53 AM 73.0 °F - 71.1 °F 93% 30.04 in 6.0 mi East 15.0 mph - 0.12 in Rain Rain
5:53 AM 73.0 °F - 71.1 °F 93% 30.05 in 10.0 mi NE 3.5 mph - 0.13 in Rain Light Rain
6:06 AM 73.4 °F - 71.6 °F 94% 30.04 in 2.5 mi East 4.6 mph 19.6 mph 0.26 in Rain Heavy Rain
6:10 AM 73.4 °F - 71.6 °F 94% 30.04 in 4.0 mi Variable 4.6 mph - 0.27 in Rain Heavy Rain
6:53 AM 73.9 °F - 72.0 °F 93% 30.03 in 5.0 mi ENE 8.1 mph - 0.31 in Rain Light Rain
7:53 AM 77.0 °F - 73.0 °F 88% 30.05 in 10.0 mi East 9.2 mph - 0.01 in   Mostly Cloudy
8:33 AM 75.2 °F - 71.6 °F 89% 30.05 in 10.0 mi East 17.3 mph 20.7 mph 0.00 in   Overcast
8:53 AM 75.9 °F - 72.0 °F 87% 30.06 in 10.0 mi East 12.7 mph - 0.00 in   Overcast
9:02 AM 75.2 °F - 73.4 °F 94% 30.06 in 10.0 mi East 10.4 mph - 0.00 in Rain Light Rain
9:12 AM 75.2 °F - 71.6 °F 89% 30.06 in 2.0 mi East 20.7 mph 27.6 mph 0.02 in Rain Light Rain
9:53 AM 75.9 °F - 73.0 °F 91% 30.07 in 2.0 mi East 16.1 mph 24.2 mph 0.13 in Rain Light Rain
10:23 AM 75.2 °F - 73.4 °F 94% 30.06 in 3.0 mi ESE 15.0 mph 21.9 mph 0.12 in Rain Light Rain
10:53 AM 77.0 °F - 72.0 °F 84% 30.09 in 3.0 mi ESE 11.5 mph 21.9 mph 0.13 in   Haze
10:57 AM 77.0 °F - 71.6 °F 83% 30.09 in 10.0 mi ESE 12.7 mph 21.9 mph N/A   Overcast
11:46 AM 77.0 °F - 71.6 °F 83% 30.10 in 10.0 mi ESE 15.0 mph 21.9 mph 0.01 in Rain Light Rain
11:53 AM 75.9 °F - 71.1 °F 85% 30.10 in 10.0 mi ESE 13.8 mph - 0.02 in Rain Light Rain
12:53 PM 77.0 °F - 73.0 °F 88% 30.08 in 10.0 mi ESE 10.4 mph - 0.01 in Rain Light Rain
1:53 PM 80.1 °F 84.2 °F 73.0 °F 79% 30.08 in 10.0 mi East 15.0 mph 20.7 mph 0.00 in   Scattered Clouds
2:53 PM 80.1 °F 84.2 °F 73.0 °F 79% 30.06 in 10.0 mi East 16.1 mph 23.0 mph N/A   Overcast
3:53 PM 80.1 °F 83.8 °F 72.0 °F 76% 30.05 in 10.0 mi East 17.3 mph - 0.00 in   Mostly Cloudy
4:04 PM 78.8 °F - 71.6 °F 78% 30.04 in 10.0 mi East 11.5 mph 21.9 mph N/A   Mostly Cloudy
4:46 PM 75.2 °F - 69.8 °F 83% 30.05 in 3.0 mi East 17.3 mph 28.8 mph 0.00 in Rain Light Rain
4:53 PM 75.0 °F - 68.0 °F 79% 30.05 in 10.0 mi ESE 13.8 mph 25.3 mph 0.00 in Rain Light Rain
5:10 PM 75.2 °F - 69.8 °F 83% 30.06 in 2.5 mi ESE 21.9 mph 35.7 mph 0.00 in Rain Light Rain
5:29 PM 73.4 °F - 68.0 °F 83% 30.05 in 7.0 mi East 21.9 mph 35.7 mph 0.00 in Rain Light Rain
5:53 PM 75.9 °F - 66.0 °F 71% 30.05 in 7.0 mi East 20.7 mph 26.5 mph 0.00 in   Overcast
6:53 PM 77.0 °F - 69.1 °F 76% 30.03 in 10.0 mi ESE 15.0 mph - N/A   Mostly Cloudy
7:53 PM 78.1 °F - 70.0 °F 76% 30.03 in 10.0 mi ESE 18.4 mph 29.9 mph N/A   Mostly Cloudy
8:53 PM 78.1 °F - 66.9 °F 68% 30.05 in 10.0 mi ESE 15.0 mph 24.2 mph N/A   Scattered Clouds
9:53 PM 78.1 °F - 69.1 °F 74% 30.06 in 10.0 mi ESE 16.1 mph - N/A   Partly Cloudy
10:53 PM 77.0 °F - 69.1 °F 76% 30.07 in 10.0 mi ESE 18.4 mph - N/A   Partly Cloudy
11:53 PM 77.0 °F - 68.0 °F 74% 30.06 in 10.0 mi East 15.0 mph - N/A   Clear